Location: Sungai Bunut
(2.6333°N, 113.7333°E)
Time: 15:28:50
(UTC+00:00)

Altair - Pass Details

Date: 04 December 2023
Orbit: 1501 x 1682 km, 47.2° (Epoch: 24 February)

Event Time Altitude Azimuth Distance (km) Brightness Sun altitude
Rises 20:52:49 0° 208° (SSW) 4,933 10.1 -20.1°
Reaches altitude 10° 20:56:09 10° 202° (SSW) 3,941 9.6 -19.3°
Maximum altitude 21:05:51 50° 130° (SE) 2,027 8.5 -17.1°
Drops below altitude 10° 21:15:17 10° 57° (ENE) 3,848 10.1 -14.9°
Sets 21:18:29 0° 52° (NE) 4,809 10.5 -14.1°
